STARLINK-34473

Last updated on Thu Jul 03 2025 00:02:06 GMT+0000 (Coordinated Universal Time)

1 64354U 25126L 25183.58335648 -.01414530 00000+0 -17103-1 0 9991 2 64354 69.9994 310.2194 0003261 272.4406 307.7838 15.63228654 4324
UTC large
Height (km)
Speed (km/s)
/
Latitude / Longitude
Inclination (degrees)
Orbital Period (minutes)
Azimuth
Elevation
Range (km)
Doppler Factor

Next 0 passes for location: London (51.5072 / 0.1276)

Sorry there are no passes over London.